User: anonymous   Login
Location: Unspecified
(0.0000°N, 0.0000°E)
Time: 16:38:01
(UTC+00:00)
Language:

CUTE 1.7 + AOD 2 - Orbit

View from above orbital plane
View from above orbital plane
View from above satellite
View from above satellite

Ground track
Ground track

The orbit data is extracted from the following two-line orbital elements,

1 32785U 08021C   16178.51869503  .00000263  00000-0  34650-4 0  9999
2 32785  97.6020 212.3469 0011637 265.5468  94.4420 14.87584119442014
Epoch (UTC): 26 June 2016 12:26:55
Eccentricity: 0.0011637
inclination: 97.6020°
perigee height: 597 km
apogee height: 613 km
right ascension of ascending node: 212.3469°
argument of perigee: 265.5468°
revolutions per day: 14.87584119
mean anomaly at epoch: 94.4420°
orbit number at epoch: 44201

The dashed part of the orbit path shows where the satellite is in the earth's shadow,  

DLR